Madigan Hospital, WA

12:08 PM PDT on July 25, 2016 (GMT -0700)
Gray Army Air Field

Weather History for KGRF - April, 2014

Change the Weather History Date:

Wednesday, April 9, 2014

  Actual Average Record
Temperature  
Mean Temperature 49 °F -  
Max Temperature 59 °F 55 °F 71 °F (2004)
Min Temperature 40 °F 36 °F 32 °F (2001)
Degree Days  
Heating Degree Days 16    
Moisture  
Dew Point 40 °F    
Average Humidity 80    
Maximum Humidity 100    
Minimum Humidity 37    
Precipitation  
Precipitation 0.00 in - - ()
Sea Level Pressure  
Sea Level Pressure 30.25 in    
Wind  
Wind Speed 3 mph (SE)    
Max Wind Speed 9 mph    
Max Gust Speed -    
Visibility 10 miles    
Events      
Averages and records for this station are not official NWS values.
T = Trace of Precipitation, MM = Missing Value Source: NWS Daily Summary

Daily Weather History Graph

Daily Weather History Graph

Search for Another Location

Airport or City:

Trip Planner

Search our weather history database for the weather conditions in past years. The results will help you decide how hot, cold, wet, or windy it might be!

Date:

Astronomy

Apr. 09, 2014 Rise Set
Actual Time 6:33 AM PDT 7:50 PM PDT
Civil Twilight 6:02 AM PDT 8:22 PM PDT
Nautical Twilight 5:24 AM PDT 9:00 PM PDT
Astronomical Twilight 4:43 AM PDT 9:41 PM PDT
Moon 2:25 PM PDT (4/9) 3:45 AM PDT (4/9)
Length of Visible Light 14h 20m
Length of Day
13h 17m
Waxing Gibbous, 72% of the Moon is Illuminated
Apr 9
Waxing Gibbous
Apr 15
Full
Apr 22
Last Quarter
Apr 28
New
May 6
First Quarter

Hourly Weather History & Observations

Time (PDT) Temp. Windchill Dew Point Humidity Pressure Visibility Wind Dir Wind Speed Gust Speed Precip Events Conditions
12:58 AM 45.3 °F - 44.1 °F 95% 30.19 in 10.0 mi WNW 2.3 mph - N/A   Clear
1:58 AM 41.5 °F 38.6 °F 41.2 °F 99% 30.21 in 10.0 mi SE 4.6 mph - N/A   Clear
2:58 AM 41.5 °F - 41.2 °F 99% 30.22 in 9.0 mi Calm Calm - N/A   Mostly Cloudy
3:58 AM 41.2 °F 39.2 °F 41.0 °F 99% 30.23 in 10.0 mi South 3.5 mph - N/A   Overcast
4:58 AM 40.6 °F 36.7 °F 40.5 °F 99% 30.23 in 10.0 mi SSE 5.8 mph - N/A   Mostly Cloudy
5:03 AM 41.0 °F 37.1 °F 41.0 °F 100% 30.21 in 10.0 mi SE 5.8 mph - N/A   Mostly Cloudy
5:08 AM 41.0 °F 39.0 °F 39.2 °F 93% 30.21 in 10.0 mi SE 3.5 mph - N/A   Mostly Cloudy
5:58 AM 41.5 °F - 41.2 °F 99% 30.23 in 10.0 mi SSE 2.3 mph - N/A   Mostly Cloudy
6:03 AM 41.0 °F 38.0 °F 41.0 °F 100% 30.21 in 10.0 mi ESE 4.6 mph - N/A   Scattered Clouds
6:58 AM 41.5 °F - 41.2 °F 99% 30.24 in 10.0 mi SE 2.3 mph - N/A   Overcast
7:28 AM 41.0 °F 39.0 °F 41.0 °F 100% 30.23 in 10.0 mi SE 3.5 mph - N/A   Overcast
7:52 AM 42.8 °F 41.1 °F 42.8 °F 100% 30.24 in 10.0 mi SSE 3.5 mph - N/A   Mostly Cloudy
7:58 AM 42.4 °F 40.7 °F 42.3 °F 99% 30.26 in 10.0 mi SSE 3.5 mph - N/A   Overcast
8:38 AM 44.6 °F - 44.6 °F 100% 30.26 in 10.0 mi SE 2.3 mph - N/A   Overcast
8:43 AM 44.6 °F - 44.6 °F 100% 30.26 in 10.0 mi ESE 2.3 mph - N/A   Overcast
8:48 AM 44.6 °F - 44.6 °F 100% 30.26 in 10.0 mi Variable 1.2 mph - N/A   Overcast
8:58 AM 44.8 °F - 44.2 °F 98% 30.28 in 10.0 mi East 1.2 mph - N/A   Overcast
9:23 AM 46.4 °F - 44.6 °F 93% 30.26 in 10.0 mi Variable 1.2 mph - N/A   Overcast
9:58 AM 46.6 °F - 44.2 °F 92% 30.29 in 10.0 mi Variable 1.2 mph - N/A   Overcast
10:43 AM 48.2 °F - 42.8 °F 82% 30.27 in 10.0 mi ENE 3.5 mph - N/A   Overcast
10:48 AM 48.2 °F - 42.8 °F 82% 30.28 in 10.0 mi Variable 3.5 mph - N/A   Overcast
10:58 AM 49.1 °F - 43.0 °F 79% 30.30 in 10.0 mi SE 3.5 mph - N/A   Overcast
11:03 AM 50.0 °F - 42.8 °F 76% 30.28 in 10.0 mi Variable 4.6 mph - N/A   Overcast
11:08 AM 50.0 °F - 42.8 °F 76% 30.28 in 10.0 mi SE 6.9 mph - N/A   Overcast
11:28 AM 50.0 °F - 41.0 °F 71% 30.28 in 10.0 mi East 4.6 mph - N/A   Overcast
11:58 AM 51.1 °F - 41.4 °F 69% 30.30 in 10.0 mi East 2.3 mph - N/A   Mostly Cloudy
12:58 PM 53.8 °F - 37.4 °F 54% 30.29 in 10.0 mi Variable 2.3 mph - N/A   Scattered Clouds
1:58 PM 55.6 °F - 36.5 °F 49% 30.28 in 10.0 mi WSW 6.9 mph - N/A   Partly Cloudy
2:58 PM 57.0 °F - 35.1 °F 44% 30.27 in 10.0 mi Variable 5.8 mph - N/A   Partly Cloudy
3:58 PM 57.9 °F - 34.3 °F 41% 30.26 in 10.0 mi WNW 8.1 mph - N/A   Clear
4:58 PM 58.5 °F - 33.3 °F 39% 30.25 in 10.0 mi West 5.8 mph - N/A   Clear
5:58 PM 57.9 °F - 32.0 °F 37% 30.24 in 10.0 mi Calm Calm - N/A   Partly Cloudy
6:58 PM 56.7 °F - 33.1 °F 41% 30.22 in 10.0 mi North 4.6 mph - N/A   Overcast
7:58 PM 55.0 °F - 34.9 °F 47% 30.21 in 10.0 mi NE 1.2 mph - N/A   Overcast
8:58 PM 51.4 °F - 40.1 °F 65% 30.23 in 10.0 mi West 9.2 mph - N/A   Partly Cloudy
9:58 PM 49.3 °F - 40.1 °F 71% 30.24 in 10.0 mi WNW 1.2 mph - N/A   Clear
10:58 PM 46.9 °F - 39.9 °F 77% 30.26 in 10.0 mi West 6.9 mph - N/A   Clear
11:58 PM 45.5 °F 44.2 °F 40.1 °F 81% 30.26 in 10.0 mi SW 3.5 mph - N/A   Clear